METEOR 2-12 DEB

Satellite information

Favourite Embed

Satellite Type and Status

DEBRISIN ORBIT

Key statistics

Satellite METEOR 2-12 DEB at a glance.

Uptime

14921

Days in orbit

Revolutions

≈ 14.0

Per day

Orbit

LEO

Low Earth Orbit

Inclination

82.5

Latest

Satellite identification and parameters

Extended collection of information and parameters for METEOR 2-12 DEB.

Object identification

Identified? True

Debris? True

Object name: METEOR 2-12 DEB

International designator: 1985-013E

Object number (NORAD): 59994

Object ID (CCSDS): 59994

Country: COMMONWEALTH OF INDEPENDENT STATES (CIS)

Current information (Y/N): Y

RCS size: SMALL

Orbital parameters

Period: 102.886 minutes

Inclination: 82.5153 deg

SMA: 7273.271 km

Apoapsis: 915.847 km

Periapsis: 874.425 km

RAAN: 84.9041 deg

Eccentricy: 0.00284757

Argument of periapsis: 337.8374 deg

Mean anomaly: 85.6151 deg

Mean motion: 13.99613415 rev/day

Mean motion (dot): 0.00004003 rev/day2

B* drag term: 0.0027214764 1/REarth

Two-line elements (TLE)

Creation date: Dec. 4, 2025, 10:52 a.m.

Reference frame: TEME

Reference center: EARTH

Epoch: Dec. 3, 2025, 2:55 p.m. UTC

TLE line 0: 0 METEOR 2-12 DEB

TLE line 1: 1 59994U 85013E 25337.62204029 .00004003 00000-0 27215-2 0 9994

TLE line 2: 2 59994 82.5153 84.9041 0028476 337.8374 85.6151 13.99613415611433

Live tracking on map

Real-time ground track for satellite METEOR 2-12 DEB.

In-orbit conjunctions

A list of the most updated potential collisions computed for object METEOR 2-12 DEB.

Target Orbit TCA Probability of collision Miss distance Type
FENGYUN 1C DEB SSO 2025-02-04 19:31:10 0.0002801891 384.0 (m) DEBRIS
DELTA 1 DEB SSO 2025-02-01 12:27:39 0.0001196233 913.0 (m) DEBRIS
CZ-6A DEB SSO 2024-10-10 01:24:42 0.0001595077 744.0 (m) DEBRIS
CZ-6A DEB SSO 2024-09-30 05:48:59 0.0002667689 452.0 (m) DEBRIS
COSMOS 1275 DEB LEO 2024-09-27 06:46:30 0.0001531559 415.0 (m) DEBRIS

Associated space launch

Film-return reconnaissance satellite

METEOR 2-12 DEB was lifted into orbit during the mission ‘Soyuz U | Zenit-8 11’, on board a Soyuz U space rocket.

The launch took place on Feb. 6, 1985, 11 a.m. from 16/2.

For more information about the launch, click the button.

Launch to space Soyuz U | Zenit-8 11
Soyuz U | Zenit-8 11

Agency: N/A

Status: Launch Successful

Launch date: Feb. 6, 1985, 11 a.m. UTC

Rocket: Soyuz U

Launch pad: 16/2

Location: Plesetsk Cosmodrome, Russian Federation

...

Latest news about this satellite

There are no fresh news available about this satellite. Check back as we update our databases every day.


Newsletter sign-up

Weekly statistics, charts and insights to help you stay on top of the space industry.